OBJECT H, 64883

Orbit data source: Space-Track

You're viewing an Uncataloged Satellite

Recently launched and/or uncataloged satellites may have evolving metadata. Metadata may include but not limited to: Owner, Maufacturer, Bus, Motor, and Mission.

OBJECT H, 64883 is a satellite in SSO that was launched on Fri, 25 Jul 2025 UTC via a SOYUZ-2-1B launch vehicle from the Vostochny Cosmodrome (VOSTO). Unknown objects in Earth's orbit typically refer to objects detected orbiting the Earth but have not yet been identified or cataloged. These objects could be anything from previously untracked satellites, spent rocket stages, debris from satellite collisions, or even natural meteoroids temporarily captured by Earth's gravity.

Loading next visibility...
Identifier
64883, 2025-155H
Orbit
SSO
Country
Flag of TBDTBD
Related business
None
Manufacturer
Unknown
Mission
Operational Commercial Technology
Bus & Motor
Unknown
Mass
Unknown
Launch date (UTC)
2025-07-25 (8 months ago)
Launch vehicle
SOYUZ-2-1B
Launch site
Vostochny Cosmodrome (VOSTO)
Object type
Unknown
Shape & HBR
Box, 1.1 m
Radar Cross Section
0.035 m², Small (<0.1 m²)

Expand to show TLE details & history
Last TLE update: 10 hours ago

TLE from 10 hours ago
0 OBJECT H
1 64883U 25155H   26073.90175033  .00012437  00000-0  46136-3 0  9993
2 64883  97.4481  42.2834 0008770 137.2095 222.9828 15.27706028 66357
Epoch: 2026-03-14T21:38Z
TLE epoch observation values (Epoch: 2026-03-14T21:38:31.228Z)
Latitude
-0.00006°
Longitude
-94.86299°
Altitude
490.177 km
Speed
7.617 km/s
True Right ascension
02h 49m 08s
True Declination
0° 00' 00"
Sunlit
Object was in daylight at epoch
Visualization orbit readout
Latitude
Unknown
Longitude
Unknown
Altitude
Unknown
Speed
Unknown
Apparent Right ascension
Unknown
Apparent Declination
Unknown
Sunlit
N/A
Visualization observer readout
Local Sidereal Time
12:19:59
Azimuth
Unknown
Elevation
Unknown
Doppler factor
Unknown
Orbital elements
Apogee altitude
485.643 km
Perigee altitude
473.615 km
Semi-major axis
6,857.766 km
Eccentricity
0.00088
Inclination
97.4481°
RAAN
42.2834°
Arg. of periapsis
137.2095°
True anomaly
222.91434°
Mean anomaly
222.9828°
Eccentric anomaly
222.94856°
Mean motion
3.82181 °/min
Orbital period
94.2 mins
BSTAR
0.00046136
Loading maneuver chart data...
Computing Atmospheric mass density...
Loading historical data...
Loading historical data...
Loading historical data...
Loading historical data...
Loading historical data...
Loading historical data...
Loading historical data...

Documentation

Showing up to 5 results
|